Location: Az?znagar
(16.8373°N, 80.5091°E)
Time: 16:13:54
(UTC+00:00)

deb Chang Zheng 4 - Pass Details

Date: 02 October 2022
Orbit: 879 x 975 km, 98.9° (Epoch: 30 November)

Event Time Altitude Azimuth Distance (km) Brightness Sun altitude
Exits shadow 14:31:15 46° 201° (SSW) 1,190 ? -30.7°
Maximum altitude 14:32:48 63° 258° (WSW) 994 ? -31.1°
Drops below altitude 10° 14:38:24 10° 339° (NNW) 2,544 ? -32.4°
Sets 14:40:48 0° 342° (NNW) 3,477 ? -33.0°
